Location: Verbania
(45.9300°N, 8.5300°E)
Time: 09:39:42
(UTC+02:00)

ISS - Visible Passes

Search period start: 11 May 2021 00:00
Search period end: 21 May 2021 00:00
Orbit: 418 x 421 km, 51.6° (Epoch: 11 May)

Date Brightness Start Highest point End Pass type
(mag) Time Alt. Az. Time Alt. Az. Time Alt. Az.
11 May -1.8 02:04:21 30° NNE 02:04:21 30° NNE 02:06:30 10° NE visible
11 May -1.8 03:37:35 10° WNW 03:40:39 30° N 03:43:42 10° ENE visible
11 May -3.4 05:14:28 10° WNW 05:17:50 69° NNE 05:21:12 10° ESE visible
12 May -1.1 01:18:16 16° NE 01:18:16 16° NE 01:19:04 10° ENE visible
12 May -1.8 02:51:12 18° NW 02:53:04 29° N 02:56:06 10° ENE visible
12 May -2.8 04:27:03 10° WNW 04:30:21 50° NNE 04:33:40 10° E visible
13 May -1.9 02:05:02 29° NNW 02:05:29 30° N 02:08:32 10° ENE visible
13 May -2.3 03:39:37 10° NW 03:42:50 39° NNE 03:46:03 10° E visible
13 May -3.6 05:16:26 10° WNW 05:19:44 52° SW 05:23:02 10° SE visible
14 May -1.8 01:18:38 29° NNE 01:18:38 29° NNE 01:21:01 10° ENE visible
14 May -2.0 02:52:10 10° WNW 02:55:17 33° N 02:58:24 10° ENE visible
14 May -3.9 04:28:57 10° WNW 04:32:21 81° SSW 04:35:43 10° ESE visible
14 May -3.8 22:50:08 10° SW 22:53:25 55° SSE 22:55:37 19° ENE visible
15 May -2.3 00:27:10 10° W 00:30:21 38° NNW 00:33:33 10° NE visible
15 May -1.8 02:04:39 10° WNW 02:07:42 30° N 02:10:45 10° ENE visible
15 May -3.5 03:41:31 10° WNW 03:44:54 70° NNE 03:48:16 10° ESE visible
15 May -3.2 22:02:59 10° SSW 22:06:04 35° SE 22:09:10 10° ENE visible
15 May -2.8 23:39:33 10° W 23:42:50 49° NNW 23:46:07 10° ENE visible
16 May -1.7 01:17:06 10° WNW 01:20:07 29° N 01:23:09 10° ENE visible
16 May -2.9 02:54:06 10° WNW 02:57:24 50° NNE 03:00:43 10° E visible
16 May -3.1 04:31:03 10° WNW 04:34:08 33° SW 04:37:12 10° SSE visible
16 May -3.4 22:51:58 10° WSW 22:55:19 67° NNW 22:58:41 10° ENE visible
17 May -1.8 00:29:30 10° WNW 00:32:32 30° N 00:35:34 10° ENE visible
17 May -2.4 02:06:40 10° NW 02:09:52 40° NNE 02:13:05 10° E visible
17 May -3.7 03:43:29 10° WNW 03:46:47 52° SSW 03:50:04 10° SE visible
17 May -3.8 22:04:31 10° WSW 22:07:52 85° SSE 22:11:15 10° ENE visible
17 May -2.0 23:41:51 10° WNW 23:44:56 33° N 23:48:03 10° ENE visible
18 May -2.0 01:19:12 10° WNW 01:22:19 33° N 01:22:55 31° NE visible
18 May -2.3 22:54:12 10° W 22:57:23 38° NNW 23:00:35 10° NE visible
19 May -1.8 00:31:42 10° WNW 00:34:44 30° N 00:36:31 19° NE visible
19 May -1.4 02:08:33 10° WNW 02:09:26 17° WNW 02:09:26 17° WNW visible
19 May -2.7 22:06:34 10° W 22:09:51 48° NNW 22:13:08 10° ENE visible
19 May -1.8 23:44:08 10° WNW 23:47:08 29° N 23:50:10 10° ENE visible
20 May -2.2 01:21:07 10° WNW 01:23:17 33° NW 01:23:17 33° NW visible
20 May -1.8 22:56:31 10° WNW 22:59:33 30° N 23:02:35 10° ENE visible
